User: anonymous   Login
Location: B
(0.0000°N, 0.0000°E)
Time: 17:54:18
(UTC+01:00)
Language:

Cosmos 1025 Rocket - Orbit

View from above orbital plane
View from above orbital plane
View from above satellite
View from above satellite

Ground track
Ground track

The orbit data is extracted from the following two-line orbital elements,

1 10974U 78067B   17056.54406425  .00000142  00000-0  13073-4 0  9993
2 10974  82.4803 274.9319 0017358 358.5623   1.5540 14.87213861 90969
Epoch (UTC): 25 February 2017 13:03:27
Eccentricity: 0.0017358
inclination: 82.4803°
perigee height: 594 km
apogee height: 619 km
right ascension of ascending node: 274.9319°
argument of perigee: 358.5623°
revolutions per day: 14.87213861
mean anomaly at epoch: 1.5540°
orbit number at epoch: 9096

The dashed part of the orbit path shows where the satellite is in the earth's shadow,  

DLR